Change the Weather History Date:

Monday, March 4, 2013

  Actual Average Record
Temperature  
Mean Temperature 38 °F -  
Max Temperature 45 °F 51 °F 82 °F (1983)
Min Temperature 28 °F 33 °F 15 °F (2009)
Degree Days  
Heating Degree Days 28    
Moisture  
Dew Point 16 °F    
Average Humidity 46    
Maximum Humidity 66    
Minimum Humidity 33    
Precipitation  
Precipitation 0.00 in - - ()
Sea Level Pressure  
Sea Level Pressure 29.97 in    
Wind  
Wind Speed 13 mph (WNW)    
Max Wind Speed 18 mph    
Max Gust Speed 29 mph    
Visibility 10 miles    
Events      
Averages and records for this station are not official NWS values.
T = Trace of Precipitation, MM = Missing Value Source: NWS Daily Summary

Daily Weather History Graph

Daily Weather History Graph

Search for Another Location

Airport or City:

Trip Planner

Search our weather history database for the weather conditions in past years. The results will help you decide how hot, cold, wet, or windy it might be!

Date:

Astronomy

Mar. 04, 2013 Rise Set
Actual Time 6:32 AM EST 6:02 PM EST
Civil Twilight 6:06 AM EST 6:28 PM EST
Nautical Twilight 5:35 AM EST 6:59 PM EST
Astronomical Twilight 5:05 AM EST 7:29 PM EST
Moon 12:36 AM EST 10:45 AM EST
Length of Visible Light 12h 22m
Length of Day
11h 29m
Waning Gibbous, 52% of the Moon is Illuminated
Mar 4
Waning Gibbous
Mar 4
Last Quarter
Mar 11
New
Mar 19
First Quarter
Mar 27
Full

Hourly Weather History & Observations

Time (EST) Temp. Windchill Dew Point Humidity Pressure Visibility Wind Dir Wind Speed Gust Speed Precip Events Conditions
12:52 AM 32.0 °F 22.5 °F 16.0 °F 52% 29.92 in 10.0 mi West 12.7 mph 20.7 mph N/A   Clear
1:52 AM 32.0 °F 22.1 °F 16.0 °F 52% 29.92 in 10.0 mi WNW 13.8 mph - N/A   Clear
2:52 AM 30.9 °F 20.7 °F 16.0 °F 54% 29.91 in 10.0 mi WNW 13.8 mph - N/A   Clear
3:52 AM 30.0 °F 21.7 °F 15.1 °F 54% 29.92 in 10.0 mi West 9.2 mph - N/A   Clear
4:52 AM 30.0 °F 19.5 °F 15.1 °F 54% 29.93 in 10.0 mi West 13.8 mph 21.9 mph N/A   Clear
5:13 AM 30.2 °F 20.2 °F 15.8 °F 55% 29.94 in 10.0 mi West 12.7 mph 20.7 mph N/A   Clear
5:52 AM 30.0 °F 20.5 °F 15.1 °F 54% 29.95 in 10.0 mi West 11.5 mph - N/A   Clear
6:52 AM 30.0 °F 21.1 °F 16.0 °F 56% 29.97 in 10.0 mi West 10.4 mph - N/A   Partly Cloudy
7:52 AM 32.0 °F 23.6 °F 16.0 °F 52% 29.99 in 10.0 mi West 10.4 mph - N/A   Partly Cloudy
8:52 AM 34.0 °F 23.0 °F 15.1 °F 46% 30.00 in 10.0 mi WNW 18.4 mph 25.3 mph N/A   Scattered Clouds
9:52 AM 36.0 °F 25.6 °F 15.1 °F 43% 30.00 in 10.0 mi NW 18.4 mph 28.8 mph N/A   Scattered Clouds
10:52 AM 37.9 °F 28.5 °F 15.1 °F 39% 29.99 in 10.0 mi WNW 17.3 mph - N/A   Partly Cloudy
11:52 AM 39.9 °F 31.1 °F 16.0 °F 38% 29.98 in 10.0 mi NW 17.3 mph 26.5 mph N/A   Partly Cloudy
12:52 PM 41.0 °F 32.2 °F 17.1 °F 38% 29.96 in 10.0 mi West 18.4 mph 28.8 mph N/A   Partly Cloudy
1:52 PM 43.0 °F 35.1 °F 19.0 °F 38% 29.94 in 10.0 mi WNW 17.3 mph 24.2 mph N/A   Partly Cloudy
2:52 PM 43.0 °F 35.1 °F 19.0 °F 38% 29.94 in 10.0 mi NW 17.3 mph - N/A   Clear
3:52 PM 44.1 °F 37.1 °F 19.9 °F 38% 29.93 in 10.0 mi WNW 15.0 mph - N/A   Clear
4:52 PM 45.0 °F 38.5 °F 17.1 °F 33% 29.94 in 10.0 mi West 13.8 mph 23.0 mph N/A   Clear
5:52 PM 42.1 °F 36.1 °F 17.1 °F 37% 29.96 in 10.0 mi West 10.4 mph - N/A   Clear
6:52 PM 41.0 °F 34.3 °F 16.0 °F 36% 29.98 in 10.0 mi WNW 11.5 mph - N/A   Clear
7:52 PM 39.9 °F 33.4 °F 15.1 °F 36% 30.00 in 10.0 mi WNW 10.4 mph - N/A   Clear
8:52 PM 39.9 °F 32.5 °F 17.1 °F 40% 30.02 in 10.0 mi WNW 12.7 mph - N/A   Clear
9:52 PM 37.9 °F 31.5 °F 15.1 °F 39% 30.03 in 10.0 mi West 9.2 mph - N/A   Clear
10:52 PM 33.1 °F 27.7 °F 18.0 °F 54% 30.03 in 10.0 mi West 5.8 mph - N/A   Clear
11:52 PM 28.0 °F 21.7 °F 18.0 °F 66% 30.04 in 10.0 mi WSW 5.8 mph - N/A   Clear